Simultaneous Nadir Overpasses (SNOs) Predictions

Prediction of SNOs between NOAA-19 and TERRA Satellite Orbit:

Table of predicted SNOs for the next 14.0 days since TLE Epoch: 1/8/2018
Index Date (NOAA-19) Time (NOAA-19) Lat,Lon (NOAA-19) SZA (NOAA-19 ) Date (TERRA) Time (TERRA) Lat,Lon (TERRA) SZA (TERRA ) Distance(km) Time Diff (sec)
1 01/08/2018 19:41:04 76.47,-101.29 98.84 01/08/2018 19:41:46 76.48,-101.17 98.87 3.46 42
2 01/08/2018 20:32:05 -76.41, 66.17 81.21 01/08/2018 20:31:15 -76.40, 66.19 81.24 1.72 50
3 01/11/2018 01:14:47 -76.47, -4.65 81.50 01/11/2018 01:15:31 -76.47, -4.62 81.48 1.06 44
4 01/11/2018 02:05:44 76.40, 162.86 98.45 01/11/2018 02:04:58 76.41, 162.82 98.45 1.61 46
5 01/13/2018 06:48:26 76.49, 91.93 98.15 01/13/2018 06:49:14 76.49, 91.99 98.16 1.73 48
6 01/13/2018 07:39:28 -76.43,-100.60 81.91 01/13/2018 07:38:43 -76.41,-100.63 81.94 2.37 45
7 01/15/2018 12:22:10 -76.49,-171.46 82.25 01/15/2018 12:22:59 -76.48,-171.47 82.26 1.54 49
8 01/15/2018 13:13:06 76.43, -3.94 97.70 01/15/2018 13:12:26 76.42, -4.04 97.67 2.87 40
9 01/17/2018 17:55:48 76.52, -74.90 97.34 01/17/2018 17:56:42 76.48, -74.89 97.31 4.09 54
10 01/17/2018 18:46:51 -76.46, 92.56 82.72 01/17/2018 18:46:10 -76.46, 92.66 82.73 2.69 41
11 01/19/2018 23:29:32 -76.49, 21.84 83.15 01/19/2018 23:30:26 -76.52, 21.81 83.12 3.10 54
12 01/20/2018 00:20:28 76.47,-170.79 96.82 01/20/2018 00:19:53 76.45,-170.78 96.80 1.54 35
13 01/22/2018 05:03:09 76.52, 118.41 96.37 01/22/2018 05:04:09 76.51, 118.35 96.38 1.63 60




NCC Satellite Simultaneous Nadir Overpasses (SNOs) Prediction Service
